Theta_e
319 318 321 323 323 325 327 332 334 334 331 319 316 318 316 318 320 319 320 319 321 319 319 320 320 320 319 320 322 323 322 322 325 329 328 331 336 336 335 339 342 343 344 340 340 344 344 344 345 345 344 344 344 343 340 339 337 336 334 336 338 338 338 339 339 339 338 339 340 339 339 339 339 339 338 338 338 338 336 333 334 335 334 332 331 331 327 326 326 325 324 321 316 310 307 308 313
321 321 322 322 322 327 334 339 334 328 325 315 314 317 315 318 320 318 319 319 320 319 321 322 321 321 319 320 322 325 325 324 328 332 332 331 331 330 336 340 342 345 344 341 340 342 344 344 345 344 344 344 344 343 341 339 338 337 335 335 337 337 338 339 338 337 337 338 339 339 339 338 339 339 338 338 338 338 338 336 336 336 334 333 334 334 329 327 328 327 326 322 316 309 304 304 308
322 323 322 323 326 327 337 339 329 324 319 313 312 316 316 318 319 318 319 319 319 319 320 321 320 319 320 321 320 324 324 325 328 330 332 331 328 327 335 340 342 344 343 342 339 341 344 343 345 344 344 344 343 343 341 339 339 338 336 335 336 337 338 339 337 336 336 337 337 337 338 338 338 339 338 338 338 338 337 337 337 336 335 335 336 335 331 329 329 328 327 322 314 306 302 303 305
321 323 324 324 333 334 336 334 331 328 317 315 315 314 318 318 319 318 319 319 319 320 319 320 318 317 320 321 319 322 322 325 328 330 333 330 329 329 335 340 341 343 343 342 340 340 342 343 344 344 345 344 343 343 342 340 339 339 337 336 335 336 336 337 337 336 337 337 336 336 337 337 337 338 337 337 337 338 337 337 337 336 336 336 336 335 332 330 329 328 326 321 313 305 301 301 301
321 322 323 323 334 334 333 330 333 330 317 321 318 313 318 317 318 317 318 319 319 320 319 319 318 317 320 321 320 323 321 322 328 332 334 330 332 333 336 340 341 344 344 342 340 339 340 342 343 344 345 344 344 343 342 340 340 339 337 336 335 335 335 335 335 335 337 336 335 335 336 335 335 336 336 336 336 337 337 337 337 336 336 336 336 335 333 330 328 328 325 321 312 304 301 301 300
322 322 323 324 328 327 334 329 322 322 317 323 319 313 319 317 319 317 317 317 317 320 319 318 318 320 321 321 322 326 324 321 328 332 332 333 336 337 337 339 341 344 343 342 339 337 339 341 342 343 345 344 344 343 342 341 340 339 337 336 334 334 334 333 333 334 336 335 334 335 335 334 335 335 335 335 335 336 336 337 336 336 336 335 335 333 332 329 329 328 324 320 312 305 300 301 300
322 324 328 331 330 327 336 327 317 320 318 320 318 315 318 317 318 317 318 316 316 317 317 317 318 321 320 320 324 327 327 325 331 333 330 333 337 338 337 337 340 342 342 343 340 338 340 342 342 342 344 344 344 343 343 341 340 339 337 335 333 335 334 331 331 332 334 334 334 336 336 335 335 334 334 334 335 336 336 336 336 336 335 334 333 332 331 330 329 327 323 320 313 305 301 301 300
322 324 331 337 335 332 333 324 319 324 321 317 318 318 318 318 318 316 318 318 317 317 317 317 318 321 317 319 325 325 327 328 332 332 329 334 338 338 338 338 339 342 343 343 341 341 343 342 342 341 343 344 343 343 343 341 341 339 338 336 333 335 333 330 331 330 332 334 335 336 336 336 335 334 335 335 335 336 336 337 336 335 334 333 332 331 331 330 328 325 321 318 313 306 301 301 301
323 323 331 336 331 329 327 321 319 321 320 318 318 319 319 319 319 317 317 317 317 317 317 317 318 322 317 317 321 321 324 326 331 332 329 331 338 339 338 340 342 343 344 343 343 343 343 343 341 341 342 343 343 343 342 342 341 339 338 336 334 335 334 330 330 331 332 334 336 335 336 336 336 336 336 335 335 336 336 336 336 335 334 332 332 331 330 329 326 324 320 315 311 305 301 301 301
326 322 326 335 328 324 321 319 320 319 318 319 317 318 319 318 319 318 318 316 317 317 316 317 318 320 317 316 317 316 317 319 327 332 330 328 334 340 339 341 343 344 344 343 343 343 343 342 342 341 342 342 343 343 342 342 341 340 338 336 334 335 335 331 330 332 332 334 336 335 336 336 336 336 336 335 336 336 336 336 336 334 333 332 331 330 329 328 326 323 320 314 307 302 300 300 300
332 326 329 335 325 321 320 320 319 319 318 318 318 318 318 318 319 317 318 317 317 318 317 317 317 317 316 316 315 313 313 314 322 330 332 329 327 334 340 341 341 343 344 343 342 341 341 340 340 341 341 342 343 343 342 342 341 340 338 336 335 334 335 333 331 332 333 333 335 335 335 335 336 336 336 336 336 336 336 336 335 334 332 331 331 330 330 328 326 322 319 314 307 301 300 300 300
330 331 335 326 320 321 322 322 319 319 319 319 318 318 318 318 319 317 318 317 317 319 317 317 315 316 317 317 315 313 313 313 318 328 332 332 328 329 335 339 341 341 341 341 341 339 339 337 338 341 342 342 342 342 342 342 341 340 339 337 336 334 334 334 332 332 333 333 334 335 334 335 335 335 336 335 335 336 336 336 335 334 332 332 331 331 330 327 324 321 318 315 309 303 300 300 300
327 329 334 321 322 326 323 322 321 322 319 318 319 318 318 317 318 316 317 317 317 319 316 316 316 317 318 317 316 314 314 313 317 327 331 333 331 328 328 332 337 339 339 339 339 339 339 337 337 341 342 342 341 342 342 342 341 340 339 337 337 335 334 335 333 331 332 332 333 334 334 334 334 335 335 335 335 335 335 335 334 334 333 333 332 330 328 325 323 320 318 315 310 304 300 300 300
325 325 330 324 324 325 324 322 321 324 318 317 318 316 318 317 317 317 318 318 317 318 315 315 315 317 318 315 318 317 315 314 316 326 331 330 330 327 324 326 332 336 337 336 337 337 339 339 338 339 341 342 341 341 342 341 340 340 339 338 337 336 334 334 333 332 331 332 332 333 333 333 334 335 335 335 335 335 335 335 334 334 333 332 331 330 327 324 322 321 318 315 311 305 300 299 300
325 328 330 325 321 319 322 323 324 326 318 317 318 316 319 316 317 318 319 319 316 317 315 314 314 316 318 316 319 316 314 315 318 326 330 328 328 326 322 325 330 333 335 335 335 335 337 338 339 339 338 340 339 340 340 340 340 340 339 339 337 337 335 334 334 333 331 331 331 332 332 332 333 334 334 334 335 335 335 335 334 333 333 332 331 329 325 323 322 321 320 317 314 309 302 298 299
325 333 332 322 320 318 316 320 324 324 318 318 318 317 319 316 317 318 317 318 317 316 316 316 315 315 317 318 317 314 315 318 318 324 328 328 329 328 325 327 329 330 332 332 333 334 335 336 338 339 338 338 338 338 338 338 339 338 339 339 338 337 336 335 333 333 331 331 331 331 332 331 331 332 333 334 334 335 335 335 334 333 332 331 330 328 325 323 323 322 321 320 318 314 308 301 298
335 340 331 322 321 319 315 319 324 323 319 319 317 317 319 316 317 317 314 317 317 315 315 315 313 313 315 315 314 315 318 318 318 322 324 326 326 325 323 324 324 324 325 326 328 330 332 334 336 337 337 337 338 338 337 338 338 338 338 338 338 337 336 336 334 333 332 332 332 332 332 332 331 332 332 333 334 334 335 334 333 332 331 331 329 327 324 323 323 323 322 322 321 319 315 309 303
341 339 329 321 319 317 316 320 324 323 320 318 317 318 319 317 318 317 315 317 315 315 315 314 313 313 313 313 315 317 318 318 318 319 319 320 319 318 318 319 319 319 320 321 322 325 329 331 333 336 336 336 337 338 339 339 339 340 339 337 338 337 337 336 335 334 333 333 333 332 332 331 331 332 332 332 334 334 334 333 333 332 331 330 329 327 324 324 324 323 323 322 322 321 319 315 311
331 333 328 321 318 316 316 319 320 320 319 318 318 318 318 317 317 316 316 316 316 317 315 313 314 314 313 314 315 317 317 317 317 317 317 316 316 316 316 317 318 318 319 320 320 321 324 327 331 333 335 336 336 337 339 340 340 340 339 338 337 337 337 336 336 335 334 334 333 333 333 332 333 334 334 333 334 334 333 332 333 332 331 330 329 327 325 325 325 324 324 323 322 321 320 318 316
325 331 327 318 318 316 315 320 318 318 319 319 318 317 317 316 316 315 315 317 318 318 317 315 316 314 314 314 314 316 316 316 316 316 316 315 315 315 315 316 317 317 318 319 319 319 320 324 328 331 332 335 336 336 337 339 339 339 338 338 337 337 336 336 336 335 334 334 334 335 335 334 334 335 335 334 334 334 332 332 332 332 331 330 329 327 326 326 325 325 325 323 321 320 319 318 317
323 328 326 317 318 317 316 320 319 319 319 319 318 316 316 315 316 317 316 317 319 318 316 317 316 314 315 314 313 314 314 314 314 315 315 314 314 314 314 315 316 316 317 317 318 318 318 320 324 329 331 333 335 336 336 337 337 337 337 337 338 337 337 336 336 336 335 335 335 336 336 335 334 335 335 334 334 334 333 332 332 332 331 330 329 328 327 327 326 326 325 323 321 320 319 318 316
320 321 322 319 319 319 317 319 320 319 318 319 318 316 316 316 316 318 317 318 320 318 315 316 315 313 315 314 313 313 313 313 313 313 314 313 313 314 314 314 315 315 315 316 316 316 317 317 319 325 330 331 334 336 335 336 336 337 337 338 338 338 337 337 337 336 336 336 336 335 335 335 334 334 334 334 334 334 333 332 332 331 331 331 330 328 327 327 326 326 325 322 321 320 319 318 317
320 318 319 320 320 319 317 319 320 318 318 319 318 316 316 317 317 317 319 319 318 316 314 314 313 312 313 312 312 313 312 312 312 312 312 313 313 313 313 313 314 314 314 314 314 315 317 319 318 321 327 330 333 336 335 334 335 336 337 338 339 338 338 337 335 335 335 335 335 335 335 335 333 333 333 334 334 333 333 332 332 331 331 330 330 329 328 327 326 325 324 322 321 320 319 318 317
320 318 318 319 319 319 319 320 319 319 318 318 317 316 316 317 316 318 321 317 314 313 310 310 311 311 311 312 312 311 312 312 312 312 312 312 312 312 313 313 313 313 314 314 314 315 318 321 320 320 325 330 333 335 334 334 335 335 336 337 338 337 337 335 334 334 334 334 335 334 334 334 333 332 332 333 333 332 333 332 331 330 330 329 330 330 328 327 325 324 323 321 321 320 319 318 318
319 318 318 320 319 319 321 321 320 319 319 317 316 316 318 318 315 317 319 313 312 312 309 309 310 310 311 312 312 310 310 311 312 311 311 311 311 313 313 313 314 314 315 316 315 316 319 321 322 321 325 330 332 333 333 334 335 335 335 335 336 336 335 333 332 333 333 333 333 333 333 333 333 332 331 332 332 332 332 331 330 329 329 328 329 329 328 326 324 323 322 321 320 320 318 318 318
318 318 317 318 317 318 320 320 320 319 318 317 316 317 319 318 315 316 316 312 312 312 311 312 311 312 313 312 310 308 309 310 310 310 310 309 310 313 314 314 315 314 316 317 316 318 319 321 323 324 326 328 328 330 332 333 334 334 334 334 334 334 333 332 331 332 332 331 331 330 331 332 332 331 331 331 331 331 330 330 329 329 329 328 327 327 326 324 323 322 321 320 320 319 318 318 318
316 318 317 318 318 318 318 319 320 319 318 317 317 317 318 316 314 316 314 311 312 312 313 313 313 313 312 312 310 308 309 309 309 309 309 309 309 313 314 314 315 315 316 317 317 319 320 322 324 326 327 327 327 329 332 333 333 333 332 332 333 332 331 331 331 330 330 330 329 329 329 330 331 331 330 330 330 329 329 328 328 328 327 327 326 325 324 323 323 322 321 320 320 319 318 318 318
316 317 317 319 319 318 317 317 318 317 316 317 317 316 316 314 314 317 314 311 312 313 313 313 314 313 312 313 310 308 308 308 309 308 308 308 308 311 313 313 315 315 315 316 317 319 321 323 325 327 327 328 328 330 331 332 332 330 330 330 331 330 329 330 330 329 329 328 327 327 327 328 329 329 329 329 329 328 328 327 327 326 325 324 324 324 323 323 323 322 321 320 319 319 318 317 317
316 316 318 321 320 318 318 316 317 317 316 317 316 316 317 315 315 317 313 311 312 312 313 313 313 313 313 313 311 308 307 307 308 307 308 308 309 311 312 313 315 315 315 315 317 319 321 323 325 326 327 328 329 329 330 330 329 328 328 328 328 328 328 329 328 327 327 326 325 325 325 326 327 327 327 327 327 326 325 325 325 324 323 323 323 323 323 322 322 321 320 319 319 318 317 317 317
317 316 316 321 322 323 321 316 317 318 316 317 315 317 324 321 315 314 311 311 313 312 313 313 313 313 312 312 312 310 307 306 307 307 307 308 310 313 313 314 315 314 314 315 317 318 320 322 324 325 326 327 328 327 329 329 327 327 327 326 325 326 327 327 325 324 324 324 324 324 324 324 325 325 325 325 324 323 323 322 322 322 321 322 322 321 321 320 320 319 318 318 317 316 315 315 316
318 317 320 322 320 328 327 315 317 317 314 316 316 318 326 323 315 312 312 312 313 313 314 313 314 313 312 312 312 310 307 306 307 307 307 308 311 313 313 314 314 314 314 315 316 317 319 321 323 324 324 326 325 324 327 326 324 326 326 323 322 324 324 323 321 321 321 321 322 322 323 323 324 324 323 323 321 320 320 320 319 319 319 320 320 319 319 318 317 316 315 315 315 314 314 314 314
318 318 329 328 319 330 330 314 317 318 313 314 316 319 322 320 315 312 312 313 313 314 313 313 313 312 312 312 311 310 307 305 306 306 306 306 309 312 313 313 313 314 314 313 314 315 317 318 320 322 321 323 323 320 322 323 321 323 322 320 319 319 320 319 317 317 318 318 319 318 319 321 321 321 320 320 319 318 318 317 316 316 317 318 317 316 315 313 312 312 311 312 312 311 311 311 310
325 320 328 329 321 326 325 316 317 318 315 313 315 321 322 320 315 312 312 313 314 314 313 313 313 312 312 310 309 309 307 305 305 305 305 304 308 311 312 313 313 313 313 312 313 314 314 315 317 318 318 320 319 317 320 320 318 320 319 317 317 315 316 315 314 315 316 316 316 316 316 317 317 317 317 318 318 316 314 314 314 314 315 315 314 313 311 308 308 307 305 305 305 305 305 305 305
331 321 321 325 322 322 321 321 318 316 317 315 314 317 319 320 316 312 313 313 313 314 314 313 312 312 312 310 308 308 307 306 305 304 304 304 306 311 313 313 313 312 312 311 312 312 312 312 314 315 314 315 316 316 317 315 314 317 316 314 314 313 313 312 312 313 313 313 314 314 314 315 314 315 315 315 315 314 312 312 312 312 313 313 311 309 307 305 303 301 298 298 299 301 302 303 303
332 326 323 324 323 322 322 322 319 316 316 316 316 315 315 318 316 313 312 312 313 314 313 313 312 312 311 310 309 308 307 306 305 304 304 304 305 309 312 312 312 311 311 309 310 311 310 310 311 312 311 311 313 314 314 312 312 314 313 312 312 311 310 310 310 310 309 310 311 311 312 313 312 312 312 313 312 311 311 310 310 310 311 310 309 307 305 303 301 297 295 294 294 296 299 302 303
330 329 330 328 325 325 323 322 319 316 316 317 317 316 315 316 318 316 312 312 313 312 313 313 312 312 311 311 310 309 307 306 304 304 305 304 304 308 311 311 311 310 310 309 308 308 308 307 307 309 309 309 310 310 309 310 311 311 310 310 309 308 308 308 308 309 308 309 309 309 310 310 309 310 310 310 309 308 307 306 306 306 306 307 306 304 303 302 300 296 294 293 293 294 296 301 304
323 323 326 327 325 324 324 321 319 316 317 319 318 317 317 317 319 318 313 312 312 312 314 314 313 312 311 311 310 309 307 305 303 304 304 304 305 308 309 309 310 309 309 309 308 308 308 307 306 306 306 308 309 308 307 307 308 309 309 307 305 303 304 306 306 306 307 306 307 308 308 307 308 307 306 305 305 303 302 301 301 302 303 303 303 302 302 301 298 295 293 291 292 293 293 296 301
320 321 322 324 325 324 323 320 318 317 318 322 322 318 318 319 320 317 313 312 312 312 313 314 312 312 311 311 311 309 306 304 303 303 304 304 305 306 307 307 309 309 308 308 308 308 307 307 306 305 305 306 308 309 309 308 306 308 309 306 303 302 302 304 305 303 304 304 305 305 304 304 304 303 302 301 300 298 297 296 297 298 300 302 302 301 300 297 295 294 292 290 290 291 291 292 295
320 322 321 323 327 325 324 322 318 317 319 326 328 321 320 321 319 318 315 313 313 311 311 313 313 312 311 311 310 308 306 304 303 303 303 304 304 305 306 306 308 309 308 308 307 307 308 307 306 305 305 304 305 307 310 310 307 308 309 305 305 304 300 301 302 300 301 302 301 301 301 300 300 298 297 296 295 293 293 292 292 293 295 296 296 295 293 291 291 291 290 290 289 289 290 291 292
323 324 321 324 327 324 325 325 319 317 319 324 326 322 319 319 319 320 317 313 313 313 312 313 313 312 311 310 309 308 306 305 304 304 303 303 303 304 305 305 307 308 307 307 307 306 307 307 307 306 306 306 306 308 310 309 307 307 306 303 304 303 298 298 298 297 298 298 297 297 297 296 295 294 293 292 292 291 291 291 291 291 291 291 291 290 289 289 289 289 289 289 289 289 289 289 291
326 327 324 326 328 325 325 324 320 321 323 321 320 322 324 322 320 321 318 314 314 315 315 316 314 312 311 310 309 307 307 305 304 304 303 302 302 303 304 304 306 306 306 306 306 305 305 305 306 306 306 307 308 309 309 308 307 305 302 300 300 298 295 295 295 293 293 293 292 292 292 292 292 291 291 291 291 291 291 290 290 290 289 289 289 289 288 288 288 288 288 289 289 289 288 288 289
325 328 326 325 327 326 325 326 324 327 331 326 321 328 336 331 323 322 320 316 316 316 316 317 316 313 312 311 309 307 306 304 303 303 303 302 302 302 303 304 305 305 305 305 305 305 305 304 304 304 305 306 306 306 306 307 306 304 301 298 296 294 292 292 291 290 290 290 290 290 290 290 290 290 290 290 290 290 290 289 289 289 289 288 288 288 288 288 288 288 288 288 288 288 288 288 288
324 329 329 327 325 325 326 326 326 331 335 327 320 329 335 329 325 327 324 319 318 316 315 315 314 313 311 310 308 307 306 304 303 302 301 301 301 302 302 303 304 304 303 304 304 304 304 303 304 304 305 304 304 304 303 305 304 301 300 297 295 293 290 289 289 288 289 289 289 289 289 289 289 289 289 289 289 289 289 289 289 289 288 288 288 288 287 287 287 287 287 287 287 287 287 287 287
329 329 331 332 326 325 327 326 328 332 333 325 321 326 328 325 325 326 325 323 320 316 315 313 311 311 310 309 308 307 306 304 303 303 302 300 301 301 301 302 303 303 303 303 302 302 302 302 303 304 304 302 301 300 300 303 302 299 297 295 292 291 289 288 288 288 288 288 289 289 288 288 288 288 288 288 288 288 288 288 288 288 288 287 287 287 286 286 286 286 286 286 286 286 286 286 286
330 327 329 333 329 329 329 327 329 329 329 326 323 325 327 327 326 322 321 324 322 317 314 313 311 309 309 308 307 306 305 303 303 303 302 300 301 301 301 301 302 302 302 302 302 301 300 300 301 301 301 300 299 298 298 300 300 298 296 293 290 288 288 288 288 288 288 288 288 288 288 288 287 288 288 288 288 288 288 288 288 288 287 287 287 287 286 286 286 286 286 286 286 286 285 286 286
327 326 329 334 332 332 331 329 329 328 328 328 326 326 327 329 329 323 319 321 323 319 315 312 311 309 308 307 306 305 304 303 302 301 300 300 301 300 301 301 301 301 301 302 301 301 300 299 300 299 299 299 298 297 297 298 298 297 294 291 289 288 287 287 287 287 287 288 287 287 287 287 287 287 287 287 287 287 288 288 288 288 287 287 287 287 286 286 286 286 286 286 286 285 285 285 285
324 328 331 334 333 333 333 330 327 327 328 328 327 326 326 329 329 324 322 323 322 319 317 315 312 310 309 307 306 305 303 302 302 301 299 300 300 299 300 300 300 300 300 300 300 300 300 299 299 299 298 298 298 297 297 297 297 295 292 290 289 288 287 287 287 287 287 287 287 287 287 287 287 287 287 287 287 288 288 288 288 287 287 287 287 286 286 286 286 286 286 286 285 285 285 285 285
325 332 332 332 332 332 331 326 324 327 329 328 327 325 324 327 329 324 322 321 319 319 319 318 315 311 308 307 306 304 303 302 302 301 299 297 297 297 298 298 299 299 298 298 299 299 299 299 299 299 297 297 297 297 297 296 294 292 290 289 288 288 288 288 287 287 287 287 287 287 287 287 287 287 287 287 287 287 288 287 287 287 286 286 286 286 286 285 286 286 286 285 285 285 285 285 285
325 330 330 329 329 330 330 326 324 327 327 324 324 324 324 325 325 323 322 320 320 322 321 318 315 311 308 307 305 304 302 302 301 300 298 296 295 296 296 297 297 298 298 297 298 298 298 298 299 298 297 296 297 296 296 295 292 291 290 289 288 288 288 288 288 287 287 287 287 287 287 287 287 287 287 287 287 287 287 286 286 286 286 286 286 286 286 285 286 285 285 285 285 285 285 284 284
324 326 329 330 328 329 330 328 327 328 327 323 320 323 325 325 325 322 321 320 320 320 320 320 315 310 308 306 304 303 302 302 301 299 298 296 295 295 296 296 296 297 297 297 297 297 297 298 298 297 296 295 295 295 295 293 291 290 289 289 289 289 288 288 288 288 288 288 288 288 288 288 288 287 287 287 286 286 286 286 286 286 286 286 286 286 285 285 285 285 285 285 285 284 284 284 284
322 323 327 328 330 333 332 329 329 330 328 322 318 323 328 329 326 320 317 316 316 315 315 316 314 309 307 305 303 303 302 301 300 299 297 296 295 295 295 296 296 296 297 296 296 297 297 297 297 296 295 294 294 294 293 291 290 290 290 289 289 289 288 288 288 288 288 288 288 288 288 288 288 287 287 286 286 286 286 286 286 286 285 285 285 285 285 285 285 285 285 285 284 284 284 284 284
322 324 327 326 329 333 330 327 325 324 325 321 319 325 329 325 322 318 313 313 314 313 311 312 312 308 305 304 303 302 301 300 299 298 297 295 294 295 295 295 296 296 296 296 296 296 296 296 296 296 294 293 293 292 291 291 290 290 290 290 289 289 289 288 288 288 288 288 288 288 288 288 287 287 286 286 286 286 286 286 286 286 286 286 286 285 285 285 285 285 285 284 284 284 284 284 283
323 323 324 323 326 327 328 327 322 319 325 325 321 324 324 321 320 317 313 312 313 312 310 310 309 306 305 304 302 302 301 300 299 298 297 295 294 294 295 295 296 296 296 296 295 296 296 296 295 295 294 293 292 292 291 291 291 291 291 290 290 289 289 289 288 288 288 288 288 288 287 287 287 287 286 286 286 286 286 286 286 286 286 286 286 286 285 285 285 285 285 284 284 283 283 283 283
323 324 324 322 325 327 328 330 326 324 328 327 323 324 324 322 322 317 312 314 314 311 310 309 306 305 305 304 302 302 301 300 299 298 296 295 294 294 294 295 296 296 296 296 295 295 296 296 295 294 293 293 292 292 292 292 292 291 291 291 290 290 289 289 289 288 288 288 287 287 287 287 287 287 287 286 286 286 286 286 286 286 286 286 286 286 285 285 285 285 284 284 283 283 283 283 283
323 326 323 324 329 328 327 329 328 328 329 328 326 324 322 322 323 320 317 317 317 313 311 310 307 305 305 303 302 302 301 300 299 298 296 295 294 294 294 295 295 296 296 296 295 295 295 295 295 294 293 293 292 292 292 292 292 291 291 290 290 290 289 289 288 288 288 288 287 287 287 287 287 287 287 287 287 286 286 287 287 287 286 286 286 286 285 285 284 284 284 283 283 283 283 283 282
320 321 318 322 328 326 326 327 327 329 329 329 329 326 325 323 321 322 321 318 316 313 311 310 307 305 304 303 302 301 301 300 299 298 297 295 294 294 294 294 295 295 296 295 295 295 295 294 294 293 293 292 292 292 292 291 291 291 290 290 290 289 289 288 288 288 288 287 287 287 287 287 287 287 287 287 286 287 287 287 287 286 286 286 286 285 285 284 284 283 283 283 283 282 282 282 282
319 320 320 321 322 322 325 325 326 329 328 329 328 326 328 327 320 319 319 316 313 313 312 310 306 305 304 303 302 301 301 300 299 298 297 295 294 294 294 294 294 295 295 295 295 294 294 293 293 293 292 292 292 291 291 291 291 290 290 290 289 289 288 288 288 288 287 287 287 287 287 287 287 287 286 287 286 286 286 286 286 286 286 285 285 284 284 283 283 283 283 282 282 282 282 282 282
319 320 320 321 320 322 325 324 323 324 326 329 328 327 328 322 316 317 318 316 312 311 312 310 307 306 304 303 303 301 301 300 299 298 297 295 293 293 293 294 294 294 295 295 294 294 293 293 293 292 292 292 291 291 291 291 290 290 290 289 289 288 288 288 288 287 287 287 287 287 287 287 287 286 286 286 286 286 286 286 286 285 285 285 284 284 283 283 283 282 282 282 282 282 282 281 281
Wind_Speed
11 10 7 8 8 8 7 2 2 3 4 3 1 3 2 3 3 4 5 3 3 2 2 1 2 2 5 8 9 9 5 2 1 3 2 3 5 4 7 10 10 14 14 15 17 16 14 13 12 12 11 11 10 10 10 10 11 11 11 11 12 12 12 12 12 13 12 12 11 12 12 12 11 11 12 13 13 14 14 15 15 15 15 15 15 15 16 18 19 19 19 19 18 16 12 8 5
12 10 8 9 7 2 2 3 4 2 5 3 1 3 2 4 6 5 5 4 2 3 1 3 4 5 7 9 8 10 7 6 4 3 4 6 5 5 10 12 12 13 12 13 16 17 15 14 13 12 12 11 10 9 10 10 11 11 11 11 11 12 12 13 12 12 12 12 11 11 11 11 11 10 10 11 12 13 13 13 13 14 13 13 14 13 14 17 19 20 20 21 20 17 13 9 6
12 11 10 10 4 1 1 3 4 2 5 4 2 2 1 6 6 5 5 4 1 3 2 4 5 4 7 8 6 6 2 4 5 3 4 4 1 5 12 12 13 12 11 12 15 17 15 14 13 12 12 11 11 10 9 10 10 10 10 10 11 11 12 12 11 11 11 11 11 11 11 10 10 10 9 11 12 12 13 13 13 13 13 12 12 11 12 16 19 21 22 22 21 18 13 9 7
11 10 11 9 3 2 3 3 2 4 4 4 2 2 3 6 6 5 4 3 2 2 2 3 4 3 6 8 3 5 3 1 5 3 3 1 3 8 11 12 13 12 11 11 13 17 15 13 13 11 12 11 11 10 10 10 9 9 9 9 9 10 11 12 11 11 11 10 11 10 10 10 10 10 9 9 10 11 13 13 13 13 13 12 11 10 12 16 19 21 23 23 22 19 14 10 8
11 10 7 3 3 1 2 2 1 5 3 4 3 1 5 7 6 6 3 2 3 5 3 3 3 2 6 4 1 3 2 1 4 7 4 3 7 9 10 11 13 14 12 11 11 16 15 12 12 11 11 11 11 10 10 10 9 9 9 8 7 9 10 10 10 11 10 10 10 10 10 9 9 9 8 8 9 10 12 13 13 13 12 12 12 11 13 16 19 21 23 23 23 19 15 11 9
13 11 3 1 1 1 3 3 3 4 1 4 5 4 6 7 7 7 3 2 3 4 4 4 3 4 5 3 4 3 3 1 2 6 4 5 8 7 9 11 13 15 13 12 11 14 14 11 12 11 11 11 11 11 11 10 9 9 9 8 7 8 9 9 10 10 10 10 10 10 9 9 8 8 7 7 8 9 11 12 12 12 11 11 10 10 13 16 19 21 22 23 22 20 15 12 11
12 8 1 2 2 1 4 3 3 3 2 2 7 6 7 7 7 7 5 2 3 4 4 4 5 6 3 1 4 4 8 6 4 4 3 7 7 6 10 11 13 15 13 14 12 13 12 10 12 11 11 11 11 11 11 11 9 9 9 8 7 8 9 9 9 9 10 10 9 9 8 8 8 7 7 6 8 9 10 11 11 11 10 9 9 10 13 16 18 20 21 22 22 19 15 13 12
7 2 1 4 2 3 4 3 2 2 1 2 4 6 7 8 6 6 5 3 1 2 3 2 6 7 2 2 4 3 12 12 7 6 6 9 9 10 14 14 14 12 11 15 13 13 12 10 11 11 11 11 12 11 11 11 9 9 9 8 8 8 9 9 9 8 9 9 8 8 7 7 7 7 6 6 8 9 10 10 10 9 9 9 9 11 13 16 18 19 20 21 21 19 15 13 13
2 1 2 4 2 3 3 3 2 3 2 2 3 3 4 5 5 5 5 4 3 2 4 3 5 6 1 6 5 2 9 10 8 9 8 9 10 14 17 16 13 12 12 14 13 12 12 10 10 11 11 11 12 11 11 11 10 10 9 8 9 9 10 10 10 8 8 7 7 7 7 6 6 6 6 6 8 10 10 9 9 8 8 9 10 12 13 16 18 19 19 19 19 17 14 12 13
2 1 2 3 2 4 3 2 2 2 2 3 4 3 2 2 4 5 6 4 4 3 3 3 7 6 5 6 3 2 6 6 8 10 9 7 10 14 16 16 14 13 14 13 12 11 11 10 9 10 11 11 11 11 11 11 11 10 9 8 9 10 10 10 11 9 8 7 6 6 6 6 6 6 5 6 8 9 9 8 8 8 7 8 10 12 14 16 17 17 18 18 17 15 13 12 12
3 3 2 4 4 3 3 2 2 3 2 3 2 1 1 1 4 4 5 5 4 4 3 4 7 5 5 4 1 2 8 9 8 9 8 6 8 13 15 16 14 14 13 11 10 8 8 8 8 9 12 12 11 11 11 11 10 10 9 8 8 9 10 11 11 10 9 8 7 6 6 5 6 6 6 7 8 9 8 8 8 8 7 8 10 12 14 15 15 16 17 17 16 14 13 12 12
3 4 4 4 2 2 4 5 4 4 3 3 1 3 2 4 4 2 4 5 4 6 4 3 3 4 4 2 3 2 9 13 8 7 7 5 7 10 12 14 14 15 14 11 9 7 5 4 6 11 12 12 11 11 11 10 10 10 10 8 8 9 10 11 10 10 9 8 7 6 6 5 6 6 7 8 8 8 8 8 7 6 6 7 9 11 12 12 13 14 16 17 16 15 12 11 12
3 1 5 2 2 4 4 5 5 4 3 0 3 2 2 5 3 1 5 6 4 6 2 3 2 5 4 1 2 0 9 12 6 6 8 6 6 7 8 11 12 14 14 12 10 8 5 3 5 11 13 12 11 11 10 10 9 9 10 9 8 8 10 11 10 10 9 8 7 6 5 5 5 6 7 8 8 8 9 8 7 5 4 5 7 9 10 10 11 14 16 16 16 15 12 11 10
2 1 5 1 1 4 4 4 3 4 1 3 2 1 2 2 2 3 8 7 4 3 1 2 3 6 4 2 1 2 6 8 4 6 8 6 6 8 10 10 12 13 12 12 12 10 6 4 4 7 11 12 11 11 10 10 9 9 9 9 8 7 8 9 9 9 8 7 6 5 4 4 4 4 6 7 7 8 9 8 7 6 3 4 6 8 9 9 12 14 16 16 16 15 13 11 10
2 1 4 2 3 2 2 2 4 5 2 3 1 1 4 0 2 6 6 6 1 2 2 5 4 4 3 3 2 2 4 6 3 8 9 8 10 13 14 13 12 11 10 10 11 11 9 7 6 5 7 9 9 9 9 9 8 8 9 9 9 8 7 8 8 8 7 6 5 5 4 3 3 3 4 5 6 7 8 7 6 5 3 3 5 7 8 10 12 15 15 15 15 15 13 12 11
3 3 5 3 2 1 1 1 4 5 2 4 2 3 5 3 2 5 1 5 2 3 4 4 5 3 3 3 4 1 4 5 5 9 10 9 12 14 15 16 14 12 10 7 8 10 10 9 9 7 6 5 5 5 6 7 7 7 8 9 9 9 8 8 8 8 7 6 5 4 3 3 3 3 3 3 5 6 7 6 6 5 3 4 5 7 8 10 12 14 13 13 14 15 14 12 11
4 4 5 3 1 2 0 0 3 4 3 3 0 3 5 2 3 2 0 5 5 4 6 4 5 5 4 4 6 6 7 7 9 10 10 11 13 15 15 15 14 13 10 8 7 7 9 10 10 10 8 5 5 5 5 5 5 6 7 10 10 10 9 9 9 8 8 7 6 5 3 3 3 3 3 3 4 6 6 6 6 4 3 4 6 6 8 9 11 12 12 13 14 14 14 13 11
5 3 4 2 0 1 1 1 3 4 4 4 1 3 6 3 1 1 2 6 6 5 6 4 7 7 7 10 11 10 9 10 12 14 14 13 14 14 14 12 11 11 9 7 6 6 7 9 10 11 11 8 6 6 7 6 5 5 5 9 11 11 10 10 10 9 8 8 7 6 4 4 3 3 4 4 5 5 5 6 6 4 3 3 5 7 8 9 10 11 12 12 13 14 14 13 12
4 3 4 1 3 1 1 3 2 3 6 5 2 4 6 5 2 1 1 1 4 6 4 4 6 7 7 10 13 12 13 14 14 16 17 16 14 14 13 11 9 8 7 5 3 4 5 7 9 11 12 11 9 6 6 7 7 6 4 7 10 12 12 12 11 9 9 8 7 6 4 4 4 5 4 4 6 6 6 6 6 4 2 2 5 7 7 8 9 10 11 12 12 13 13 13 13
2 4 4 3 4 2 2 4 4 2 6 7 3 3 4 3 3 3 2 1 4 5 2 3 4 4 4 6 12 14 15 16 15 15 16 15 15 14 13 12 9 8 6 4 1 2 4 6 8 10 10 11 11 8 6 6 6 4 3 5 8 11 11 11 10 9 9 9 8 6 5 6 6 7 6 5 6 8 7 7 7 6 4 3 5 5 5 6 7 8 10 10 11 11 12 13 14
1 3 4 5 3 3 2 4 5 4 5 7 4 2 2 2 2 3 4 2 1 3 3 4 6 7 6 5 9 13 15 16 15 15 15 14 14 13 12 10 8 7 5 3 1 2 4 6 8 10 10 11 12 10 8 6 4 4 3 4 6 9 11 11 10 10 9 8 9 8 7 7 7 7 9 10 9 9 9 9 10 9 7 4 5 4 4 4 3 6 8 8 9 10 11 12 14
3 1 4 4 4 4 2 3 4 3 5 5 4 2 1 1 0 3 6 4 4 4 3 5 7 7 7 7 9 11 12 14 14 14 15 14 12 11 10 9 7 5 5 4 3 2 1 4 6 9 12 12 12 11 9 6 4 6 6 6 7 8 10 11 11 11 9 8 8 9 9 7 7 7 9 11 10 9 9 11 12 10 8 5 5 7 7 3 2 5 6 6 8 9 10 12 15
3 2 1 2 4 5 3 2 2 3 5 2 2 2 1 2 2 3 6 4 4 4 5 7 7 8 10 10 9 8 9 11 13 13 13 13 12 11 10 9 8 7 7 7 6 3 3 4 4 7 13 14 13 12 9 5 5 8 9 11 11 10 11 11 9 8 8 8 6 6 7 6 6 7 7 8 8 9 10 11 12 11 9 7 8 8 8 5 4 4 4 4 7 9 10 11 14
5 0 2 3 3 5 4 3 2 4 4 3 2 2 1 3 2 0 4 3 4 6 7 9 9 11 12 10 8 7 8 11 13 14 14 13 12 10 9 9 9 8 8 9 8 5 4 4 3 5 13 15 14 13 8 6 7 9 11 13 13 12 12 12 11 10 10 9 7 5 5 5 6 8 7 6 6 8 8 10 13 12 10 10 9 8 8 7 6 3 4 5 7 9 9 9 12
4 1 2 2 1 3 5 5 4 2 3 3 2 1 4 5 3 1 4 5 5 7 8 9 9 10 10 7 7 7 9 12 14 14 14 12 10 9 9 8 9 9 10 9 8 6 5 4 5 5 13 15 14 12 9 9 11 12 14 15 15 14 14 16 16 14 11 9 7 6 6 6 6 7 7 6 7 7 6 10 13 10 9 8 6 7 8 8 8 6 6 5 7 8 9 9 10
1 2 1 2 3 2 5 5 5 5 3 2 1 4 7 4 3 2 4 8 6 7 7 7 8 8 7 6 6 8 8 10 13 14 13 11 10 10 10 8 9 10 9 9 8 7 6 7 8 6 11 12 11 11 11 12 14 14 17 17 17 16 16 16 16 15 11 8 7 7 7 7 7 7 7 7 8 7 7 10 11 9 9 10 9 10 9 9 9 7 6 6 7 8 10 11 11
2 2 3 2 5 5 4 6 7 5 3 5 5 5 6 3 3 3 3 8 7 8 7 6 8 7 6 5 6 9 9 10 12 12 12 11 10 11 10 8 9 10 8 9 9 8 8 9 10 9 8 9 10 12 14 15 16 17 19 19 18 17 17 16 15 14 10 7 7 8 8 8 8 8 9 9 9 10 11 12 13 13 14 13 12 12 11 10 9 7 6 7 7 8 10 10 10
2 3 4 6 6 6 4 6 6 5 3 6 8 4 4 2 2 5 6 8 7 9 8 6 7 6 6 6 5 8 10 10 11 11 11 10 10 10 10 9 8 9 9 10 9 7 8 10 11 11 12 12 14 15 16 16 18 19 20 21 19 18 17 16 14 12 9 6 7 9 10 10 9 9 11 12 13 13 14 15 16 16 16 15 14 13 12 10 9 8 8 7 6 6 6 7 9
2 3 2 7 6 6 7 7 7 6 3 6 7 2 4 3 5 4 8 9 7 8 8 7 7 6 6 6 5 6 9 11 11 11 11 10 9 9 10 9 7 9 9 9 9 7 8 11 12 13 16 15 17 17 17 18 19 20 21 21 20 18 15 12 12 12 10 8 8 9 9 10 11 11 12 13 14 15 16 17 17 16 15 14 14 12 11 10 10 11 9 7 6 6 7 7 7
1 1 2 3 6 5 8 5 7 7 3 6 7 2 6 7 6 4 8 9 8 8 7 6 6 5 6 5 5 5 8 10 10 10 10 9 8 8 8 7 6 9 9 8 10 8 8 11 11 13 17 15 18 20 18 19 20 19 18 19 19 16 13 11 13 14 13 12 11 10 10 10 11 13 13 14 15 16 17 17 17 16 15 13 13 12 11 11 11 11 9 7 8 7 8 8 7
0 1 1 1 1 5 7 1 8 7 2 5 8 2 6 7 4 6 7 8 9 8 7 6 6 6 5 5 5 4 6 10 10 10 9 7 7 7 7 7 8 9 9 10 10 9 8 11 12 13 17 15 18 22 21 20 21 20 18 18 19 17 15 16 17 18 17 17 15 14 14 14 15 15 15 16 17 18 18 19 18 17 15 14 14 13 13 13 12 12 11 8 8 8 8 8 7
1 1 3 2 2 5 7 1 8 7 1 4 7 2 6 7 5 7 6 7 8 8 7 7 7 7 6 5 5 5 5 10 11 10 9 7 7 7 6 8 10 10 10 11 10 11 12 14 15 15 18 19 20 24 24 24 24 23 21 21 21 21 21 21 22 21 20 20 19 19 18 18 18 18 18 17 19 20 20 20 19 18 17 16 16 15 15 16 14 14 13 10 8 8 8 7 7
2 2 3 3 2 3 5 3 4 6 4 2 4 3 4 5 5 7 6 8 7 7 8 8 8 7 7 6 5 5 5 7 9 10 10 8 7 6 7 10 11 10 11 12 11 13 15 15 17 18 19 21 23 24 25 25 26 24 24 24 23 24 25 24 24 23 23 23 22 23 21 20 21 20 19 18 19 20 21 21 20 18 17 17 18 17 17 18 16 15 16 14 12 11 10 9 9
4 1 3 4 3 2 2 4 5 4 6 4 5 4 5 5 5 8 8 9 8 8 9 9 8 7 7 6 6 6 6 5 6 10 10 8 8 7 8 10 12 11 12 14 13 14 17 17 18 21 22 23 24 25 26 27 28 26 26 26 25 26 27 26 26 25 25 25 25 24 23 22 22 21 20 19 20 20 21 21 20 18 17 17 18 19 19 19 18 18 20 20 18 16 13 11 12
3 3 2 3 3 3 4 4 3 5 5 5 4 5 10 8 5 7 8 8 9 9 9 8 8 8 7 7 7 7 6 5 7 11 11 9 9 8 9 11 13 13 14 16 16 17 19 19 19 22 24 26 26 27 28 29 30 29 29 29 28 29 28 27 27 27 27 26 25 25 24 23 23 22 21 20 21 21 21 20 19 18 17 17 18 20 20 18 18 20 21 22 22 21 18 14 15
6 5 4 4 3 4 4 4 4 7 5 5 7 7 10 9 7 8 8 8 9 8 6 6 7 7 7 7 6 7 7 6 8 12 11 10 9 9 11 12 13 15 16 18 19 19 20 20 21 22 24 27 29 29 30 31 32 32 31 31 30 30 29 28 27 27 26 25 25 24 23 23 23 22 21 21 21 21 21 20 19 19 18 18 20 21 20 19 18 19 21 22 23 24 22 19 18
5 4 3 4 4 5 4 3 5 5 4 6 9 9 9 8 8 10 9 7 8 8 7 7 8 7 8 8 7 7 7 7 10 12 10 10 10 12 14 13 14 16 17 18 19 19 20 21 21 22 22 25 28 29 29 30 32 32 31 31 31 29 28 28 27 25 25 25 23 22 23 23 22 22 22 22 22 23 24 23 23 22 22 22 23 23 21 18 18 18 21 23 23 26 27 22 18
6 5 5 5 4 6 5 3 4 2 2 6 6 7 9 8 8 8 7 7 10 12 11 11 11 9 7 8 8 7 6 6 10 11 11 12 11 13 14 13 15 17 16 17 18 18 19 20 22 22 22 23 26 28 28 28 28 30 30 30 30 28 27 26 26 25 25 24 23 22 23 23 23 23 24 24 26 26 28 28 27 27 25 24 24 23 20 19 19 18 21 24 26 28 29 25 19
7 6 4 5 4 4 4 2 1 0 2 4 5 6 8 9 8 7 8 11 12 14 15 13 13 11 9 10 9 8 7 6 7 9 12 14 13 14 14 13 15 17 16 17 17 17 17 19 21 22 21 23 24 26 27 27 26 27 28 29 27 26 27 27 26 26 26 25 25 25 25 25 26 27 27 28 29 29 29 30 29 28 27 25 25 24 23 22 22 21 21 23 25 27 28 27 24
6 5 4 5 4 3 3 4 2 2 1 2 5 6 6 7 8 7 11 11 7 7 8 7 9 11 11 11 10 10 10 9 7 8 10 14 15 15 15 15 15 17 16 16 16 16 17 18 21 21 21 22 23 24 25 26 26 26 27 27 26 27 29 29 29 30 29 29 29 29 29 29 29 30 29 29 29 29 28 28 27 27 26 25 25 25 25 24 24 23 23 22 23 26 27 26 25
4 5 6 4 4 5 5 3 1 3 4 2 3 6 6 6 9 11 7 4 1 1 3 5 6 8 8 8 9 10 11 10 10 8 9 14 16 16 17 17 17 17 16 15 16 16 17 19 20 21 21 22 23 24 24 24 25 27 29 30 30 31 31 31 32 32 31 32 32 32 31 30 30 30 29 28 27 27 27 27 26 26 26 25 25 26 25 24 24 23 23 23 24 24 24 24 24
5 4 7 7 6 6 5 0 3 3 5 3 1 3 7 4 7 11 3 3 4 2 5 8 7 6 8 8 9 9 9 9 10 10 11 14 17 17 18 18 18 18 16 15 16 16 17 19 20 21 21 23 24 25 25 24 25 27 31 33 33 33 31 30 31 32 32 33 33 32 31 29 29 28 28 27 27 26 26 26 26 26 26 25 25 25 24 24 23 22 22 22 23 22 21 23 23
4 5 6 8 8 7 7 4 1 2 4 3 2 2 7 5 4 8 4 5 8 6 7 9 6 6 8 9 8 9 9 9 9 10 12 14 17 18 18 19 19 18 17 16 17 17 19 21 21 22 24 25 25 25 25 25 27 29 32 33 34 34 32 30 31 32 33 33 32 31 30 29 28 28 28 27 26 26 25 25 24 24 24 24 23 24 24 23 22 22 21 22 22 21 21 23 21
4 5 5 7 8 8 8 6 3 4 3 3 1 3 6 8 6 7 7 7 9 10 11 9 7 8 8 8 9 10 10 10 9 9 10 13 17 18 19 19 20 19 19 19 19 20 23 24 25 25 26 26 25 25 25 25 29 32 33 34 34 34 35 33 32 33 33 32 32 31 30 29 28 27 27 26 25 24 24 24 23 23 24 23 23 24 24 22 22 21 21 21 21 21 21 22 20
6 5 5 6 6 5 4 3 2 1 3 3 2 4 3 9 5 2 4 7 10 13 14 13 12 12 10 9 9 9 9 10 10 10 10 14 17 18 20 20 20 20 20 21 22 23 25 26 26 27 26 25 24 22 23 26 30 33 35 36 35 34 35 35 33 33 32 31 31 30 29 29 27 26 26 25 24 23 23 23 22 22 22 22 22 22 21 20 20 20 19 19 20 21 20 19 19
4 3 5 6 4 4 5 4 3 3 2 4 5 5 3 9 3 3 1 5 10 12 13 13 13 12 11 10 10 9 8 8 8 10 13 16 18 19 21 22 21 20 21 21 23 24 25 26 26 26 25 23 21 20 22 26 30 33 35 37 38 36 35 35 34 33 31 31 31 30 28 28 26 26 25 23 23 22 21 20 20 20 20 19 19 19 19 19 19 19 19 18 18 19 19 18 18
5 6 6 7 5 5 4 2 4 2 6 6 9 9 6 6 3 5 5 5 7 9 8 8 9 11 12 11 10 9 8 7 8 9 13 17 19 21 23 23 22 21 21 22 23 24 25 25 25 25 23 21 21 21 22 26 31 34 35 37 39 38 37 36 35 33 31 31 31 29 28 27 26 25 23 23 21 20 19 18 18 18 18 18 18 18 18 18 18 17 17 17 17 18 17 16 17
6 5 5 4 4 4 4 4 3 2 8 5 10 11 9 8 6 3 6 5 4 7 8 8 11 13 12 10 9 9 9 8 9 8 11 15 18 21 23 23 23 23 22 23 24 25 25 25 25 24 23 21 22 23 24 28 32 34 35 37 38 38 37 36 35 34 32 31 31 29 28 26 25 24 22 21 20 18 18 18 17 17 17 17 17 17 17 17 16 15 15 15 16 16 15 14 14
5 5 6 3 1 2 2 2 2 5 7 4 8 8 7 9 9 7 10 10 7 6 7 8 12 13 11 10 10 9 9 9 10 9 9 12 15 19 22 23 24 24 24 24 25 26 25 25 25 25 23 23 24 25 26 30 33 34 35 36 36 36 35 35 35 34 32 31 30 29 27 26 25 23 21 20 19 17 17 17 17 17 17 16 16 16 15 15 14 14 14 14 14 14 14 13 14
5 6 6 5 3 1 3 3 3 4 5 4 4 5 3 5 5 8 12 11 7 5 6 7 10 12 12 12 11 10 10 10 10 9 9 10 15 19 22 24 24 25 26 26 26 27 27 26 26 26 25 25 26 28 30 33 34 34 35 35 35 34 34 33 33 32 30 29 28 27 26 24 23 22 21 20 19 17 17 16 16 16 16 15 14 14 14 13 13 12 13 13 13 13 12 12 13
5 5 6 5 5 4 4 4 4 4 4 4 1 3 4 2 2 6 7 7 5 5 4 2 6 8 9 10 10 10 10 10 9 10 10 12 18 22 23 25 26 26 28 27 27 28 28 28 27 28 28 28 29 31 33 34 34 33 33 33 33 33 32 32 31 29 29 28 26 25 24 23 22 22 21 20 18 16 16 16 15 15 14 13 13 12 12 11 11 11 11 11 11 11 10 10 11
3 2 4 4 6 5 3 3 4 2 2 3 2 4 4 4 5 5 2 4 5 5 3 6 8 8 9 9 9 10 10 10 10 10 10 13 20 23 24 26 27 28 29 29 29 30 30 30 29 29 30 30 31 33 34 34 34 33 32 32 32 32 31 31 30 28 27 26 25 24 23 22 22 21 21 19 17 16 15 14 14 13 12 11 11 10 9 9 9 8 9 9 9 9 8 8 8
2 2 5 4 3 5 3 3 1 2 4 4 4 5 4 3 7 4 2 2 3 4 2 5 7 9 10 9 10 10 10 10 10 10 10 14 19 22 24 27 28 29 30 30 31 31 31 31 31 31 31 32 33 34 34 34 33 33 32 32 32 31 31 30 29 29 27 26 24 24 24 23 21 21 19 18 17 15 14 13 12 12 11 9 8 8 7 6 6 6 6 6 7 7 7 6 6
5 4 6 2 2 1 2 2 2 1 5 4 4 7 5 2 5 2 3 1 3 3 3 4 6 9 10 10 10 10 10 9 9 10 11 15 19 22 24 27 28 30 31 31 31 31 31 31 32 33 34 35 35 35 35 34 34 33 33 33 32 32 31 30 29 29 27 26 25 24 23 22 21 20 19 17 16 15 14 12 11 10 9 7 6 5 5 4 4 4 4 5 5 5 5 4 4
5 4 5 4 1 1 3 2 3 3 5 4 3 6 6 7 6 1 2 8 8 7 6 7 9 11 10 10 10 10 10 9 9 10 10 13 19 22 24 26 27 29 29 29 30 30 30 31 32 33 35 35 36 35 35 34 34 34 34 33 33 32 31 30 29 29 27 27 26 24 23 22 21 19 18 17 16 14 13 11 9 8 7 6 4 4 3 3 3 3 3 4 4 4 3 3 3
3 1 2 2 2 3 4 3 2 2 3 4 2 3 4 7 7 7 10 13 12 11 10 10 12 13 11 10 11 10 11 11 10 10 9 12 18 22 25 27 28 29 29 29 29 30 31 31 32 34 34 35 35 35 35 35 34 35 34 33 33 32 31 30 29 29 27 26 25 24 23 22 21 19 18 17 15 14 12 10 9 7 6 5 4 4 4 3 3 3 3 3 2 2 2 2 2
3 3 4 3 1 2 1 2 2 4 3 3 3 5 6 4 3 9 13 13 13 14 14 13 12 12 11 11 11 11 11 11 10 11 10 13 18 22 24 27 28 29 29 30 30 31 31 33 34 35 36 36 36 36 36 36 35 35 35 34 34 33 32 31 30 28 27 26 25 23 22 21 21 19 18 16 15 13 12 10 9 8 7 6 5 5 4 4 3 3 3 2 1 1 1 1 2
6 6 7 8 6 4 2 4 3 3 3 4 3 7 8 3 0 4 8 9 10 14 14 12 11 12 11 10 11 11 11 11 12 11 10 13 18 22 25 27 28 29 30 31 31 32 33 34 35 36 37 37 37 37 37 36 36 35 35 35 35 34 33 31 30 29 27 26 25 23 22 22 21 19 17 16 15 14 12 11 10 9 8 7 6 5 4 3 3 3 2 2 1 1 1 2 2
Wind_Direction
349 343 349 351 337 332 320 74 71 326 81 88 114 91 51 76 89 68 50 36 59 313 273 98 34 50 88 105 109 88 48 11 114 112 144 179 138 152 135 121 143 156 157 164 171 168 160 157 153 150 145 141 136 127 118 108 103 95 99 108 109 110 109 105 100 98 97 96 94 92 91 91 90 89 90 90 90 90 89 89 88 85 81 77 71 65 55 47 43 41 37 34 30 27 24 21 20
355 355 7 355 330 338 299 100 83 343 57 62 33 90 102 63 65 72 77 77 123 248 288 54 49 61 92 115 103 74 39 3 49 93 124 129 115 143 134 128 149 153 154 165 173 170 164 160 155 155 151 146 142 132 121 112 105 96 97 107 111 115 112 108 107 108 105 102 101 100 97 94 93 89 89 93 94 93 91 91 92 88 81 74 65 59 49 40 37 35 32 30 27 24 22 20 16
357 1 0 359 345 100 21 47 81 80 71 87 15 334 88 74 90 103 105 105 203 248 13 29 42 46 67 75 56 69 75 352 34 61 119 136 55 124 137 134 145 155 158 163 173 174 167 161 158 157 155 150 147 138 127 118 108 99 97 105 114 119 118 114 112 114 111 108 109 108 104 100 98 94 92 94 96 94 91 92 92 88 81 74 67 57 45 37 34 30 28 27 25 24 24 25 26
351 357 341 350 25 36 43 53 105 110 105 134 65 343 91 106 122 109 120 115 4 37 55 42 47 25 73 77 57 75 92 343 23 52 118 126 85 113 132 132 143 159 159 157 169 176 171 164 162 159 158 154 150 143 132 123 112 102 98 106 116 122 124 121 116 116 114 113 113 110 107 105 102 99 97 95 96 95 96 98 92 85 79 75 70 57 41 33 28 25 25 25 24 24 25 29 34
347 356 327 331 69 26 74 74 70 93 137 170 117 127 123 123 123 113 135 107 55 69 69 73 82 29 71 67 45 73 337 274 38 54 87 111 110 107 121 130 145 156 158 156 162 175 174 169 168 163 163 158 154 148 136 128 118 106 99 106 117 125 129 128 123 121 118 117 116 112 109 107 106 103 102 97 97 98 99 100 91 84 81 76 69 54 38 29 24 23 25 25 24 24 26 31 35
344 355 339 173 102 153 86 60 56 67 206 160 124 162 144 130 131 131 125 68 56 86 90 69 102 90 71 39 61 81 323 260 80 46 64 120 116 108 130 137 147 154 159 156 150 165 170 172 173 169 166 162 158 153 141 134 123 112 104 108 122 129 130 130 129 126 122 121 119 113 110 108 110 109 107 99 97 104 105 102 94 89 86 80 71 51 33 25 23 24 25 26 25 24 27 34 38
341 349 38 66 352 61 86 102 105 71 348 110 130 153 144 141 141 133 124 79 13 33 86 92 121 100 74 131 78 44 33 65 100 49 80 124 115 111 133 137 149 155 161 163 149 152 160 166 176 178 170 164 162 157 148 141 133 122 111 114 128 132 128 127 127 127 126 124 121 114 112 111 110 112 112 105 102 110 109 104 98 92 87 79 64 40 28 25 25 27 27 27 26 26 28 36 42
342 332 61 73 17 31 88 105 111 122 35 62 128 145 142 143 138 131 138 130 112 19 50 72 106 91 356 77 96 53 55 65 77 65 101 130 114 107 125 133 148 154 156 168 160 153 159 161 175 183 176 170 165 163 158 150 143 130 119 122 130 134 129 128 129 130 132 126 122 121 120 118 114 116 117 112 113 117 111 106 101 94 85 66 47 36 31 29 29 28 28 28 27 27 29 39 48
7 170 25 73 53 32 79 74 67 123 101 82 89 113 128 127 120 122 119 94 132 95 19 1 79 102 129 68 93 124 58 60 78 65 75 121 122 113 123 126 136 144 141 157 157 154 160 164 176 184 184 178 169 168 167 158 150 137 128 128 132 140 134 133 137 139 143 132 126 128 126 127 125 120 119 114 119 123 115 112 107 95 78 58 45 41 37 34 32 29 29 29 29 28 30 40 51
38 125 60 76 53 52 62 37 57 108 124 131 96 100 108 74 91 103 115 104 119 98 353 9 77 117 144 92 94 90 47 47 82 70 54 90 127 129 129 120 118 131 134 141 146 151 155 164 178 188 190 184 174 171 171 164 155 142 136 136 136 146 143 141 145 146 151 143 137 134 126 125 120 113 117 122 125 127 122 118 109 94 78 62 52 46 39 36 32 30 31 32 33 33 35 45 54
37 341 84 77 39 69 126 124 106 122 128 118 53 26 108 27 75 84 104 97 89 84 345 21 82 125 111 86 153 102 53 41 61 72 56 61 121 141 141 130 119 122 126 128 132 141 147 162 186 194 190 185 179 174 174 170 162 149 144 144 140 148 150 149 153 156 158 157 153 144 132 122 117 116 120 126 129 132 130 120 106 96 83 67 55 44 36 33 32 33 36 36 36 36 40 48 56
65 334 64 79 54 130 159 141 140 136 100 89 42 307 347 46 61 64 94 92 78 72 10 13 102 129 95 71 192 164 36 31 40 76 79 70 107 132 147 147 134 122 120 122 124 125 126 148 188 193 186 181 180 178 179 173 167 158 154 153 145 150 155 156 161 163 166 169 167 156 142 128 127 131 132 134 136 141 141 130 119 108 84 62 48 38 31 31 33 35 38 39 39 38 41 48 56
86 32 78 88 186 137 128 133 155 124 57 131 182 262 23 56 65 139 101 83 66 78 13 312 107 89 94 151 155 139 13 20 31 85 97 91 92 103 129 150 149 135 122 119 120 117 111 100 174 191 184 177 180 178 181 181 172 165 164 163 153 150 156 160 164 169 172 175 179 170 154 135 130 138 141 142 145 151 149 146 144 132 94 58 41 30 30 36 39 39 40 41 42 43 43 47 53
90 121 102 117 314 112 122 121 156 111 64 259 212 260 49 79 132 101 97 79 44 126 171 341 92 89 96 153 57 332 352 9 43 101 110 104 92 83 92 125 150 150 134 128 126 121 120 120 157 184 177 175 183 177 179 184 177 172 172 171 162 154 159 162 165 174 178 181 186 182 175 153 136 141 146 147 150 155 157 159 158 146 115 64 40 31 37 45 46 45 43 44 46 49 49 49 51
111 110 94 95 357 65 136 140 151 122 148 236 214 133 70 38 117 75 94 113 106 220 111 25 53 106 140 161 198 265 343 8 83 121 119 109 96 82 77 95 123 139 140 140 140 134 124 131 150 162 173 182 193 187 188 189 182 182 178 176 173 164 162 164 170 177 183 189 193 192 194 183 163 155 150 153 155 161 167 169 164 153 129 80 45 39 48 52 51 47 45 45 48 51 53 55 55
102 97 74 70 353 68 159 138 117 107 182 216 199 120 79 330 44 86 155 136 122 351 47 12 13 88 118 141 170 154 33 39 122 139 133 124 106 93 83 89 100 109 120 130 147 156 141 134 141 150 168 189 213 208 208 207 201 200 190 184 177 174 171 168 176 181 185 194 198 199 201 201 199 186 168 160 165 171 174 176 171 154 120 81 53 53 60 56 52 48 45 44 47 49 51 52 56
59 74 68 48 359 83 13 58 133 147 187 206 271 85 110 304 356 94 279 83 95 37 52 28 24 75 95 115 122 93 78 85 117 135 134 129 115 101 92 93 96 93 98 106 122 156 166 155 146 151 159 170 205 215 219 219 214 212 203 195 184 181 182 179 182 181 186 194 199 203 201 205 212 211 195 184 183 177 174 176 172 150 100 65 56 66 68 58 51 48 46 43 43 45 48 46 46
54 76 82 73 117 67 253 176 174 156 142 179 185 86 124 157 301 336 18 54 85 68 57 55 53 70 91 104 102 88 90 92 101 107 102 104 100 89 81 82 86 80 80 92 109 133 160 168 162 164 164 161 172 198 216 216 217 218 210 205 198 190 187 190 191 188 193 197 202 204 202 213 224 214 197 196 195 182 178 171 165 152 93 58 66 77 70 58 52 50 44 40 39 38 42 43 40
73 104 84 149 190 57 238 138 119 127 145 164 123 86 112 157 187 85 8 35 99 95 62 75 77 72 83 93 95 90 87 84 86 89 82 78 76 71 67 65 67 62 59 67 105 143 152 166 172 176 175 172 164 162 193 200 203 211 215 213 205 196 192 195 195 195 200 200 203 202 203 217 222 213 196 197 196 188 185 169 162 159 123 87 87 80 71 62 56 51 39 36 36 31 33 36 36
87 102 78 240 201 74 27 94 87 104 139 135 111 84 96 174 177 109 173 102 92 134 153 133 127 122 112 92 92 91 83 80 78 79 76 71 68 65 60 55 50 43 36 32 28 200 186 176 178 182 182 182 175 155 147 168 178 182 201 206 200 200 199 198 198 202 205 206 206 199 205 216 218 218 210 201 197 191 179 169 172 175 174 141 99 82 78 69 58 49 34 32 34 29 31 33 34
66 104 142 220 165 87 9 84 84 71 105 125 137 89 61 224 171 116 149 113 42 200 207 171 153 149 142 113 93 92 86 81 77 76 73 70 69 65 61 57 51 41 20 356 327 250 214 189 185 186 187 186 178 162 142 149 177 188 194 184 189 200 200 195 197 202 202 207 213 202 198 209 210 212 212 204 198 190 175 176 183 185 188 164 126 127 116 82 50 45 34 29 30 28 33 38 39
63 47 166 185 106 114 236 99 87 72 72 87 108 102 209 211 117 136 143 164 221 202 176 143 134 142 141 124 104 93 89 85 82 82 78 76 72 67 64 56 48 36 17 8 354 311 194 171 183 185 188 184 175 164 144 127 163 190 193 189 191 190 193 195 194 199 199 201 213 207 195 201 207 205 207 202 198 190 180 185 189 191 193 179 157 150 141 133 77 55 41 28 26 29 36 45 46
92 319 45 45 86 139 193 118 94 88 84 90 139 170 156 93 303 205 145 176 192 152 140 128 121 127 120 111 104 95 96 96 91 88 84 83 76 69 64 53 43 32 28 19 2 8 109 124 153 177 182 180 171 160 143 128 155 169 173 185 190 178 181 188 182 180 181 181 190 202 197 199 197 184 187 196 208 200 184 185 189 192 193 187 174 160 157 149 109 70 51 37 31 29 32 43 46
99 337 350 13 79 136 157 153 142 105 129 200 141 103 151 140 246 238 119 160 144 128 128 127 122 114 108 102 100 99 101 101 98 91 85 82 77 74 67 59 52 42 42 32 21 48 93 97 90 157 176 172 162 156 151 161 168 156 156 169 171 164 162 157 150 143 141 150 155 167 181 182 170 173 187 192 204 204 196 196 194 192 193 192 182 172 170 145 127 104 68 51 37 29 25 35 42
73 103 297 343 25 149 152 149 151 145 193 224 84 146 231 190 190 222 159 165 143 135 132 128 119 104 102 104 104 100 93 98 102 94 86 81 75 78 70 63 61 51 46 41 41 56 70 73 64 129 167 164 160 167 172 166 159 147 145 150 149 148 143 132 133 135 127 128 139 149 159 159 147 163 184 167 165 184 199 197 187 183 184 180 165 161 161 141 130 107 78 62 45 36 30 31 32
164 125 327 348 318 233 155 157 177 191 219 208 189 255 260 231 188 244 180 166 156 138 137 132 116 104 103 105 108 106 91 92 101 98 90 83 73 75 74 65 61 55 51 51 57 59 61 68 66 109 157 165 171 176 166 151 148 142 135 137 140 141 136 127 126 124 120 122 128 130 138 144 135 141 153 141 144 155 155 156 152 147 145 142 140 143 147 140 127 108 91 78 57 45 41 37 31
179 97 5 312 281 277 180 186 200 194 221 196 186 236 270 268 192 234 191 166 158 136 144 140 118 121 121 108 107 106 97 93 102 104 94 83 74 74 77 71 61 62 63 60 63 63 65 74 80 99 132 155 164 157 149 142 139 137 132 132 134 134 133 131 124 118 122 128 119 112 112 123 126 125 129 124 127 132 131 133 135 136 131 131 139 140 139 136 126 114 102 84 61 45 44 42 38
112 72 351 300 287 294 229 211 215 180 225 193 168 226 291 356 241 223 176 164 160 143 151 146 127 134 129 119 112 105 101 101 104 104 96 89 84 80 77 72 65 68 66 62 69 76 76 86 93 104 119 137 144 140 141 136 130 130 130 130 130 129 128 125 119 115 125 132 121 115 104 105 112 115 120 121 125 129 131 133 135 134 129 128 132 134 135 131 124 117 107 92 74 59 61 58 51
84 79 344 300 331 311 245 223 206 169 195 175 139 324 299 237 236 201 154 159 156 145 153 149 140 143 135 128 119 110 109 104 100 99 99 96 90 83 77 73 72 76 73 71 84 95 93 100 106 113 121 131 135 133 136 134 128 128 125 125 127 127 123 118 116 116 126 132 125 116 105 101 104 106 111 115 121 125 125 127 126 122 119 122 122 124 126 118 115 113 104 92 84 80 81 73 60
40 69 141 306 355 313 254 224 183 164 177 153 128 306 274 245 229 162 153 159 145 148 163 156 148 149 145 139 124 116 113 107 102 100 100 92 87 87 83 81 87 85 86 90 98 104 103 109 117 122 121 127 132 130 136 135 129 130 127 123 123 123 125 124 119 118 122 123 120 115 111 109 106 104 107 112 115 114 113 111 110 108 106 110 110 109 106 101 101 101 97 90 83 77 66 60 55
295 349 52 2 4 285 289 249 161 162 195 131 116 208 260 271 237 176 173 164 151 159 173 167 161 162 155 145 133 123 115 113 111 107 103 96 98 102 94 94 102 100 100 99 106 114 116 122 129 131 126 131 134 129 134 133 127 129 131 125 120 121 127 123 115 114 115 114 114 112 112 111 108 106 107 110 110 107 106 103 100 100 101 104 102 97 94 88 87 87 85 81 74 64 49 40 32
80 55 323 317 177 265 310 342 161 162 196 125 120 196 266 272 226 192 186 171 161 165 178 176 170 168 160 154 142 132 121 117 115 114 114 113 116 117 111 110 110 110 109 106 114 120 120 125 130 133 132 136 134 126 127 128 122 123 124 120 117 118 120 116 110 110 111 111 109 106 107 109 109 109 109 109 108 105 105 103 100 101 104 104 99 95 90 80 77 76 69 60 50 41 34 31 32
353 124 247 262 187 264 316 308 216 158 130 173 182 200 264 265 207 192 191 184 175 172 186 184 178 175 165 159 149 144 134 120 117 119 121 123 126 124 118 119 116 114 117 115 119 121 120 124 129 131 131 135 132 126 127 125 121 121 120 117 115 113 113 111 109 111 111 110 108 105 105 108 108 110 111 112 110 106 104 104 102 103 104 102 98 94 87 77 70 69 64 57 49 46 48 51 60
317 171 228 253 208 222 276 289 274 145 137 201 223 225 246 256 202 191 195 188 186 189 193 189 181 176 170 162 153 156 148 138 137 129 128 127 125 126 123 125 124 121 122 117 117 122 121 122 129 130 128 130 131 129 128 123 120 122 118 115 114 110 108 109 110 110 110 110 109 108 110 110 109 110 111 112 111 107 104 103 102 103 104 103 99 93 87 80 72 71 69 65 61 61 60 58 67
209 195 213 263 247 232 225 253 241 160 164 196 201 241 251 257 232 208 207 192 197 206 198 190 182 172 172 167 160 165 152 149 154 138 135 136 130 131 129 128 128 125 123 118 116 118 116 115 121 126 126 125 126 126 124 120 118 119 116 113 112 108 107 109 109 108 108 109 110 111 112 112 110 110 109 109 108 105 103 101 101 101 103 105 103 97 90 84 80 76 73 71 69 65 62 69 79
184 186 172 194 233 267 232 240 230 171 172 217 206 226 245 247 233 221 219 201 206 217 199 186 185 176 172 170 168 164 152 154 155 143 141 143 138 133 128 126 127 127 125 122 118 116 115 115 116 120 123 123 123 122 120 119 117 116 115 112 109 107 108 109 107 108 108 108 110 111 112 111 110 109 107 107 106 104 102 100 101 101 103 105 102 97 90 83 80 77 73 69 69 67 64 74 87
214 223 230 210 212 266 252 243 251 166 156 235 223 227 247 246 229 221 213 197 208 218 210 200 191 182 177 174 171 158 152 158 150 145 147 147 140 133 129 129 131 129 128 128 125 122 122 122 121 121 124 126 126 125 122 121 120 118 116 112 109 106 108 108 107 108 108 108 110 110 110 110 110 109 106 106 104 103 101 100 100 99 100 101 97 95 92 87 81 77 74 68 66 65 60 64 82
244 242 256 262 228 250 258 223 243 169 172 254 252 248 255 253 237 223 198 188 210 211 205 204 194 186 181 172 168 155 147 151 147 148 150 150 145 137 135 137 140 138 135 135 132 130 132 131 130 130 131 131 130 131 129 125 122 123 121 116 113 109 108 110 109 109 110 111 112 111 110 111 110 108 107 107 105 103 102 98 96 95 96 98 98 98 95 92 86 81 77 71 69 66 61 58 64
235 235 235 256 247 261 295 309 298 29 193 253 281 269 260 264 255 227 196 198 214 212 206 203 189 183 182 176 168 154 151 156 156 158 156 154 149 143 142 143 146 144 141 140 137 138 142 140 139 140 140 138 136 135 134 130 126 125 124 121 119 115 110 111 112 112 114 114 112 112 112 111 111 109 108 107 105 103 101 98 96 95 95 97 99 97 93 89 85 81 78 75 74 70 65 60 57
219 220 206 239 252 238 274 299 286 257 208 236 284 282 264 270 275 249 213 209 223 220 212 209 194 186 183 177 167 158 162 165 165 166 162 158 153 150 148 145 145 144 143 146 143 142 145 145 146 147 145 142 139 137 134 131 128 125 123 121 122 119 114 115 115 113 114 113 111 112 111 111 111 109 107 105 103 101 99 98 96 95 94 93 93 91 88 84 81 78 74 73 72 71 71 64 61
232 206 189 210 226 212 233 273 298 321 333 303 297 300 272 237 247 253 231 204 281 352 173 195 207 194 172 163 166 167 167 165 165 169 169 164 159 158 154 149 148 147 146 149 151 149 148 148 150 149 148 146 143 140 137 136 132 128 124 121 119 118 115 116 115 110 111 111 110 110 110 110 110 108 106 104 102 101 99 97 96 95 93 91 89 86 85 82 78 75 71 70 69 72 77 72 68
260 226 201 200 202 217 237 212 61 360 319 277 203 288 279 245 233 252 247 159 224 221 185 197 195 178 166 165 172 172 168 166 166 168 171 168 162 159 156 154 153 150 147 150 152 153 151 150 151 150 147 145 143 141 140 142 140 136 132 127 123 119 114 113 113 111 111 111 110 110 110 110 109 107 106 104 103 101 99 98 96 94 92 89 88 86 85 82 78 76 72 73 72 71 77 76 73
251 242 204 200 205 221 228 204 125 251 262 266 143 193 274 291 238 246 223 185 220 223 214 212 190 179 182 177 176 172 169 166 164 166 168 168 163 158 157 157 155 150 146 149 150 151 151 148 147 147 143 141 141 141 143 145 143 140 136 131 127 124 117 114 115 115 114 113 113 113 112 111 110 108 107 104 103 100 98 97 94 93 91 89 88 86 85 83 81 80 75 75 75 70 70 74 74
236 243 184 182 204 218 219 211 216 227 261 305 125 133 278 279 246 230 198 191 229 230 223 221 200 197 193 182 180 174 172 167 162 167 168 168 165 159 157 157 154 150 148 150 150 149 147 143 143 143 140 140 141 142 146 149 146 140 136 131 127 124 121 119 120 118 118 118 117 116 114 113 111 109 107 105 103 101 98 97 95 93 92 90 88 86 86 85 82 81 76 74 74 70 68 72 74
242 227 153 145 175 186 169 164 206 298 347 297 208 116 282 274 262 226 192 202 234 235 225 219 207 200 194 187 185 175 171 167 161 164 166 166 164 158 157 156 153 152 153 154 153 150 146 142 143 143 142 142 144 146 148 150 148 143 138 133 127 124 123 123 124 123 123 123 120 118 118 116 114 111 109 107 104 102 99 97 94 92 90 89 87 86 86 85 82 80 77 75 74 73 72 72 75
225 144 95 68 77 80 81 112 112 29 319 239 199 153 234 269 249 116 181 227 235 236 229 220 207 200 194 189 186 175 165 160 158 157 159 163 161 157 156 155 154 154 156 157 156 155 152 148 148 147 147 150 152 155 154 151 149 145 141 137 131 129 128 127 128 127 127 126 123 123 122 119 118 114 112 109 106 103 99 96 93 91 91 90 89 89 88 85 83 80 78 77 75 76 75 73 76
140 91 62 41 26 32 42 60 86 43 272 223 189 180 191 267 268 158 193 226 225 229 233 220 198 195 199 193 183 174 161 155 155 149 152 157 156 155 155 154 156 157 158 159 159 160 158 155 154 152 152 156 158 160 160 155 153 149 144 141 137 136 135 134 133 131 131 131 128 127 125 123 120 117 114 111 107 104 102 99 98 97 97 96 94 92 90 87 85 82 80 78 76 76 75 74 75
111 88 83 64 354 13 20 2 77 217 259 212 186 187 185 232 264 214 223 266 254 224 225 212 193 194 196 186 175 170 162 157 155 151 151 151 151 153 155 155 157 159 159 159 160 162 161 160 159 155 154 159 161 162 163 161 156 151 147 145 143 142 142 141 139 138 138 136 133 131 129 126 123 121 118 114 111 110 108 106 105 103 101 98 95 93 90 88 86 83 81 79 77 76 75 72 71
95 104 112 123 287 4 5 302 179 225 262 231 187 185 198 236 258 257 254 269 264 230 228 216 196 191 183 170 168 165 163 162 158 156 155 154 156 156 156 158 159 161 162 161 161 163 162 162 163 159 156 161 164 164 165 163 158 154 151 149 148 147 147 145 143 142 142 139 137 135 133 130 128 125 122 119 118 117 113 111 108 105 101 98 96 94 92 90 87 83 81 78 75 74 71 68 67
147 139 142 161 171 209 242 229 236 248 266 268 187 172 234 272 273 252 249 261 273 272 262 227 191 182 173 165 162 158 162 165 160 161 162 163 164 162 161 162 163 164 164 164 164 165 163 163 165 161 159 162 165 165 165 162 159 156 155 154 152 151 150 148 146 145 144 141 139 137 135 133 131 129 127 124 124 122 117 113 109 105 103 101 98 95 94 90 86 82 79 75 73 72 69 66 65
182 153 139 163 164 182 216 201 220 249 270 286 245 164 200 208 245 243 245 270 305 319 292 167 142 155 152 148 150 154 162 165 164 167 170 171 168 165 165 166 166 167 167 166 166 166 165 164 166 163 160 162 165 164 162 161 159 158 158 157 155 154 152 150 149 147 145 143 141 139 137 136 133 132 130 127 127 124 119 115 111 107 105 103 99 95 93 89 84 80 76 74 74 72 68 66 64
225 121 120 187 185 180 221 209 186 189 300 278 218 219 214 208 253 248 242 301 338 3 22 100 115 131 135 144 155 161 167 167 170 171 172 173 170 168 168 168 170 170 169 169 169 169 168 166 166 164 162 164 165 163 162 161 161 161 161 160 158 157 155 153 152 150 148 146 145 142 140 139 136 133 131 129 128 124 119 116 113 109 106 103 100 96 93 90 85 81 79 77 77 73 65 60 57
179 150 179 202 170 163 215 274 100 103 276 258 190 243 282 296 271 245 125 332 352 18 48 123 139 143 147 163 168 171 175 171 173 173 172 174 171 172 172 171 172 173 172 172 171 172 171 168 167 165 164 165 166 165 165 164 164 165 165 164 162 161 160 158 155 153 151 149 147 145 142 140 137 134 133 131 129 126 122 118 113 110 108 105 102 98 95 92 88 86 85 82 78 73 63 56 54
134 189 198 144 49 104 148 271 325 178 255 267 194 232 255 237 263 304 81 245 256 244 195 157 162 162 165 176 175 176 176 168 168 170 171 175 174 174 174 174 176 176 175 174 173 174 173 171 170 167 166 167 168 168 168 168 168 167 167 167 166 165 164 161 158 155 154 152 149 147 144 141 139 137 135 133 131 128 125 120 115 111 110 109 107 104 101 98 97 96 94 90 85 80 66 55 52
136 195 193 129 114 208 143 192 234 203 243 278 231 231 229 206 220 209 181 218 220 216 203 186 189 185 179 179 177 175 169 165 170 171 174 178 177 176 173 175 177 177 176 175 174 175 174 173 173 171 170 169 170 170 170 171 171 170 169 169 169 168 166 164 160 158 157 154 151 149 146 143 140 138 136 135 133 129 126 122 119 117 118 120 120 121 123 122 121 118 112 105 100 96 77 54 39
67 106 179 132 139 172 166 179 184 173 216 255 275 273 240 221 204 182 199 212 202 196 200 201 199 192 186 180 177 176 174 175 177 175 179 179 177 176 174 175 176 176 177 175 175 176 175 175 174 173 172 172 172 173 172 172 173 171 171 170 170 170 168 165 163 160 158 155 152 150 147 144 141 140 138 136 134 131 129 128 128 130 133 136 143 148 150 154 153 145 138 129 123 114 85 50 28
149 152 174 186 137 110 185 215 160 150 186 221 268 279 258 238 202 191 203 210 199 193 198 204 202 193 190 184 179 179 178 179 178 176 179 177 174 174 174 175 176 175 176 176 177 178 177 177 176 175 174 174 175 175 175 174 173 173 172 171 171 170 169 167 164 162 159 155 153 151 148 145 143 142 141 139 138 136 134 134 136 139 142 146 156 162 163 168 172 171 165 163 163 140 55 359 359
178 181 184 186 176 156 197 243 205 162 195 189 205 268 264 240 271 231 218 217 208 199 199 201 196 191 189 185 182 181 178 179 181 179 177 173 171 171 172 174 175 175 176 177 178 178 178 178 179 178 177 177 177 177 176 175 174 175 175 173 172 171 170 169 165 163 160 156 155 153 151 148 146 144 143 143 143 140 138 137 138 141 146 151 157 163 168 177 188 196 192 199 224 239 301 315 334